"Sample Date","Sample Time","Sample Value","Units","Flow Rate","Sample Interval","Number Channels","Micron Size 0","Counts/Channel 0","Micron Size 1","Counts/Channel 1","Micron Size 2","Counts/Channel 2","Micron Size 3","Counts/Channel 3","Micron Size 4","Counts/Channel 4","Micron Size 5","Counts/Channel 5","Micron Size 6","Counts/Channel 6","Micron Size 7","Counts/Channel 7","Micron Size 8","Counts/Channel 8","Micron Size 9","Counts/Channel 9","Micron Size 10","Counts/Channel 10","Micron Size 11","Counts/Channel 11","Micron Size 12","Counts/Channel 12","Micron Size 13","Counts/Channel 13","Micron Size 14","Counts/Channel 14","Micron Size 15","Counts/Channel 15","Micron Size 16","Counts/Channel 16","Micron Size 17","Counts/Channel 17","Micron Size 18","Counts/Channel 18","Micron Size 19","Counts/Channel 19","Micron Size 20","Counts/Channel 20","Micron Size 21","Counts/Channel 21","Micron Size 22","Counts/Channel 22","Micron Size 23","Counts/Channel 23","Micron Size 24","Counts/Channel 24","Micron Size 25","Counts/Channel 25","Micron Size 26","Counts/Channel 26","Micron Size 27","Counts/Channel 27","Micron Size 28","Counts/Channel 28","Micron Size 29","Counts/Channel 29","Micron Size 30","Counts/Channel 30","Micron Size 31","Counts/Channel 31"
"03/06/08","02:00:02",23808.000,"cc",28293.441,6.00,6,0.100,20656.000,0.200,2668.000,0.300,221.000,0.500,200.000,1.000,63.000,5.000,0
"03/06/08","02:00:08",24081.000,"cc",28330.359,6.00,6,0.100,20941.000,0.200,2666.000,0.300,215.000,0.500,181.000,1.000,78.000,5.000,0
"03/06/08","02:00:14",24154.000,"cc",28303.715,6.00,6,0.100,20995.000,0.200,2663.000,0.300,221.000,0.500,199.000,1.000,76.000,5.000,0
"03/06/08","02:00:20",24034.000,"cc",28381.762,6.00,6,0.100,20964.000,0.200,2616.000,0.300,200.000,0.500,184.000,1.000,70.000,5.000,0
"03/06/08","02:00:26",24194.000,"cc",28369.203,6.00,6,0.100,21106.000,0.200,2641.000,0.300,209.000,0.500,180.000,1.000,58.000,5.000,0
"03/06/08","02:00:32",23722.000,"cc",28291.137,6.00,6,0.100,20624.000,0.200,2659.000,0.300,198.000,0.500,172.000,1.000,69.000,5.000,0
"03/06/08","02:00:38",24449.000,"cc",28310.000,6.00,6,0.100,21287.000,0.200,2681.000,0.300,218.000,0.500,194.000,1.000,69.000,5.000,0
"03/06/08","02:00:44",25131.000,"cc",28270.469,6.00,6,0.100,21892.000,0.200,2792.000,0.300,190.000,0.500,174.000,1.000,83.000,5.000,0
"03/06/08","02:00:50",26410.000,"cc",28379.047,6.00,6,0.100,22946.000,0.200,3030.000,0.300,214.000,0.500,167.000,1.000,53.000,5.000,0
"03/06/08","02:00:56",26352.000,"cc",28349.234,6.00,6,0.100,22853.000,0.200,3080.000,0.300,201.000,0.500,159.000,1.000,59.000,5.000,0
"03/06/08","02:01:02",26223.000,"cc",28339.703,6.00,6,0.100,22662.000,0.200,3103.000,0.300,210.000,0.500,177.000,1.000,71.000,5.000,0
"03/06/08","02:01:08",25832.000,"cc",28305.809,6.00,6,0.100,22361.000,0.200,3049.000,0.300,194.000,0.500,166.000,1.000,62.000,5.000,0
"03/06/08","02:01:14",25990.000,"cc",28263.438,6.00,6,0.100,22551.000,0.200,2934.000,0.300,220.000,0.500,206.000,1.000,79.000,5.000,0
"03/06/08","02:01:20",25849.000,"cc",28305.107,6.00,6,0.100,22473.000,0.200,2930.000,0.300,220.000,0.500,167.000,1.000,59.000,5.000,0
"03/06/08","02:01:26",26412.000,"cc",28324.398,6.00,6,0.100,22823.000,0.200,3131.000,0.300,188.000,0.500,200.000,1.000,70.000,5.000,0
"03/06/08","02:01:32",26328.000,"cc",28292.645,6.00,6,0.100,22883.000,0.200,2989.000,0.300,246.000,0.500,163.000,1.000,47.000,5.000,0
"03/06/08","02:01:38",26432.000,"cc",28256.260,6.00,6,0.100,22904.000,0.200,3052.000,0.300,219.000,0.500,184.000,1.000,73.000,5.000,0
"03/06/08","02:01:44",26087.000,"cc",28287.777,6.00,6,0.100,22615.000,0.200,2979.000,0.300,223.000,0.500,191.000,1.000,79.000,5.000,0
"03/06/08","02:01:50",26811.000,"cc",28328.447,6.00,6,0.100,23190.000,0.200,3169.000,0.300,221.000,0.500,167.000,1.000,64.000,5.000,0
"03/06/08","02:01:56",26159.000,"cc",28395.262,6.00,6,0.100,22579.000,0.200,3100.000,0.300,227.000,0.500,166.000,1.000,87.000,5.000,0
"03/06/08","02:02:02",26306.000,"cc",28337.367,6.00,6,0.100,22773.000,0.200,3036.000,0.300,203.000,0.500,200.000,1.000,94.000,5.000,0
"03/06/08","02:02:08",26558.000,"cc",28306.481,6.00,6,0.100,22990.000,0.200,3074.000,0.300,222.000,0.500,194.000,1.000,78.000,5.000,0
"03/06/08","02:02:14",26770.000,"cc",28307.484,6.00,6,0.100,23167.000,0.200,3098.000,0.300,210.000,0.500,227.000,1.000,68.000,5.000,0
"03/06/08","02:02:20",26299.000,"cc",28275.535,6.00,6,0.100,22828.000,0.200,2984.000,0.300,222.000,0.500,212.000,1.000,53.000,5.000,0
"03/06/08","02:02:26",26818.000,"cc",28306.176,6.00,6,0.100,23294.000,0.200,3026.000,0.300,238.000,0.500,199.000,1.000,61.000,5.000,0
"03/06/08","02:02:32",27126.000,"cc",28354.383,6.00,6,0.100,23568.000,0.200,3044.000,0.300,220.000,0.500,201.000,1.000,93.000,5.000,0
"03/06/08","02:02:38",27404.000,"cc",28292.275,6.00,6,0.100,23865.000,0.200,3107.000,0.300,211.000,0.500,153.000,1.000,68.000,5.000,0
"03/06/08","02:02:44",26830.000,"cc",28326.938,6.00,6,0.100,23212.000,0.200,3116.000,0.300,231.000,0.500,199.000,1.000,72.000,5.000,0
"03/06/08","02:02:50",27163.000,"cc",28442.066,6.00,6,0.100,23546.000,0.200,3129.000,0.300,239.000,0.500,174.000,1.000,75.000,5.000,0
"03/06/08","02:02:56",26832.000,"cc",28406.246,6.00,6,0.100,23321.000,0.200,3011.000,0.300,261.000,0.500,174.000,1.000,65.000,5.000,0
"03/06/08","02:03:02",27514.000,"cc",28230.381,6.00,6,0.100,23788.000,0.200,3292.000,0.300,206.000,0.500,175.000,1.000,53.000,5.000,0
"03/06/08","02:03:08",27437.000,"cc",28290.912,6.00,6,0.100,23714.000,0.200,3203.000,0.300,264.000,0.500,192.000,1.000,64.000,5.000,0
"03/06/08","02:03:14",26966.000,"cc",28293.949,6.00,6,0.100,23360.000,0.200,3110.000,0.300,227.000,0.500,200.000,1.000,69.000,5.000,0
"03/06/08","02:03:20",26557.000,"cc",28336.678,6.00,6,0.100,23173.000,0.200,2931.000,0.300,204.000,0.500,168.000,1.000,81.000,5.000,0
"03/06/08","02:03:26",26149.000,"cc",28268.473,6.00,6,0.100,22730.000,0.200,2999.000,0.300,203.000,0.500,159.000,1.000,58.000,5.000,0
"03/06/08","02:03:32",25817.000,"cc",28317.729,6.00,6,0.100,22380.000,0.200,2977.000,0.300,226.000,0.500,169.000,1.000,65.000,5.000,0
"03/06/08","02:03:38",25426.000,"cc",28327.752,6.00,6,0.100,22180.000,0.200,2798.000,0.300,204.000,0.500,179.000,1.000,65.000,5.000,0
"03/06/08","02:03:44",25073.000,"cc",28322.176,6.00,6,0.100,21857.000,0.200,2786.000,0.300,221.000,0.500,156.000,1.000,53.000,5.000,0
"03/06/08","02:03:50",24758.000,"cc",28316.188,6.00,6,0.100,21581.000,0.200,2801.000,0.300,154.000,0.500,156.000,1.000,66.000,5.000,0
"03/06/08","02:03:56",24881.000,"cc",28327.994,6.00,6,0.100,21726.000,0.200,2751.000,0.300,194.000,0.500,164.000,1.000,46.000,5.000,0
"03/06/08","02:04:02",24594.000,"cc",28317.057,6.00,6,0.100,21437.000,0.200,2723.000,0.300,210.000,0.500,168.000,1.000,56.000,5.000,0
"03/06/08","02:04:08",24215.000,"cc",28329.324,6.00,6,0.100,21177.000,0.200,2585.000,0.300,202.000,0.500,187.000,1.000,64.000,5.000,0
"03/06/08","02:04:14",24197.000,"cc",28327.172,6.00,6,0.100,21266.000,0.200,2526.000,0.300,186.000,0.500,163.000,1.000,56.000,5.000,0
"03/06/08","02:04:20",23446.000,"cc",28301.930,6.00,6,0.100,20607.000,0.200,2470.000,0.300,145.000,0.500,162.000,1.000,62.000,5.000,0
"03/06/08","02:04:26",23842.000,"cc",28266.176,6.00,6,0.100,20851.000,0.200,2578.000,0.300,190.000,0.500,160.000,1.000,63.000,5.000,0
"03/06/08","02:04:32",24214.000,"cc",28393.482,6.00,6,0.100,21174.000,0.200,2639.000,0.300,188.000,0.500,146.000,1.000,67.000,5.000,0
"03/06/08","02:04:38",23989.000,"cc",28279.842,6.00,6,0.100,21000.000,0.200,2548.000,0.300,192.000,0.500,182.000,1.000,67.000,5.000,0
"03/06/08","02:04:44",23995.000,"cc",28276.520,6.00,6,0.100,20892.000,0.200,2634.000,0.300,199.000,0.500,190.000,1.000,80.000,5.000,0
"03/06/08","02:04:50",24037.000,"cc",28318.258,6.00,6,0.100,21001.000,0.200,2569.000,0.300,234.000,0.500,151.000,1.000,82.000,5.000,0
"03/06/08","02:04:56",24238.000,"cc",28275.945,6.00,6,0.100,21236.000,0.200,2516.000,0.300,220.000,0.500,186.000,1.000,80.000,5.000,0
"03/06/08","02:05:02",23969.000,"cc",28354.266,6.00,6,0.100,21015.000,0.200,2511.000,0.300,194.000,0.500,176.000,1.000,73.000,5.000,0
"03/06/08","02:05:08",23838.000,"cc",28345.318,6.00,6,0.100,20874.000,0.200,2486.000,0.300,216.000,0.500,184.000,1.000,78.000,5.000,0
"03/06/08","02:05:14",23376.000,"cc",28302.188,6.00,6,0.100,20403.000,0.200,2545.000,0.300,203.000,0.500,165.000,1.000,60.000,5.000,0
"03/06/08","02:05:20",23679.000,"cc",28353.231,6.00,6,0.100,20718.000,0.200,2460.000,0.300,219.000,0.500,197.000,1.000,85.000,5.000,0
"03/06/08","02:05:26",23762.000,"cc",28310.389,6.00,6,0.100,20869.000,0.200,2468.000,0.300,179.000,0.500,176.000,1.000,70.000,5.000,0
"03/06/08","02:05:32",23415.000,"cc",28284.029,6.00,6,0.100,20551.000,0.200,2370.000,0.300,221.000,0.500,208.000,1.000,65.000,5.000,0
"03/06/08","02:05:38",23117.000,"cc",28282.270,6.00,6,0.100,20287.000,0.200,2370.000,0.300,208.000,0.500,174.000,1.000,78.000,5.000,0
"03/06/08","02:05:44",23413.000,"cc",28332.221,6.00,6,0.100,20500.000,0.200,2455.000,0.300,196.000,0.500,188.000,1.000,74.000,5.000,0
"03/06/08","02:05:50",23313.000,"cc",28352.195,6.00,6,0.100,20379.000,0.200,2440.000,0.300,205.000,0.500,209.000,1.000,80.000,5.000,0
"03/06/08","02:05:56",23613.000,"cc",28249.975,6.00,6,0.100,20645.000,0.200,2447.000,0.300,232.000,0.500,213.000,1.000,76.000,5.000,0
"03/06/08","02:06:02",23269.000,"cc",28331.156,6.00,6,0.100,20328.000,0.200,2505.000,0.300,207.000,0.500,163.000,1.000,66.000,5.000,0
"03/06/08","02:06:08",24017.000,"cc",28284.902,6.00,6,0.100,20922.000,0.200,2549.000,0.300,236.000,0.500,217.000,1.000,93.000,5.000,0
"03/06/08","02:06:14",24817.000,"cc",28317.770,6.00,6,0.100,21753.000,0.200,2504.000,0.300,257.000,0.500,211.000,1.000,92.000,5.000,0
"03/06/08","02:06:20",25548.000,"cc",28373.549,6.00,6,0.100,22308.000,0.200,2732.000,0.300,213.000,0.500,214.000,1.000,81.000,5.000,0
"03/06/08","02:06:26",25522.000,"cc",28232.959,6.00,6,0.100,22306.000,0.200,2686.000,0.300,247.000,0.500,207.000,1.000,76.000,5.000,0
"03/06/08","02:06:32",25828.000,"cc",28409.938,6.00,6,0.100,22504.000,0.200,2781.000,0.300,241.000,0.500,235.000,1.000,67.000,5.000,0
"03/06/08","02:06:38",25467.000,"cc",28320.522,6.00,6,0.100,22256.000,0.200,2687.000,0.300,214.000,0.500,225.000,1.000,85.000,5.000,0
"03/06/08","02:06:44",25866.000,"cc",28291.332,6.00,6,0.100,22641.000,0.200,2736.000,0.300,237.000,0.500,190.000,1.000,62.000,5.000,0
"03/06/08","02:06:50",25374.000,"cc",28298.346,6.00,6,0.100,22241.000,0.200,2623.000,0.300,243.000,0.500,191.000,1.000,76.000,5.000,0
"03/06/08","02:06:56",25662.000,"cc",28354.541,6.00,6,0.100,22467.000,0.200,2716.000,0.300,216.000,0.500,182.000,1.000,81.000,5.000,0
"03/06/08","02:07:02",25871.000,"cc",28350.482,6.00,6,0.100,22669.000,0.200,2685.000,0.300,236.000,0.500,205.000,1.000,76.000,5.000,0
"03/06/08","02:07:08",26074.000,"cc",28392.397,6.00,6,0.100,22690.000,0.200,2880.000,0.300,215.000,0.500,214.000,1.000,75.000,5.000,0
"03/06/08","02:07:14",26143.000,"cc",28304.941,6.00,6,0.100,22841.000,0.200,2786.000,0.300,224.000,0.500,215.000,1.000,77.000,5.000,0
"03/06/08","02:07:20",26952.000,"cc",28350.547,6.00,6,0.100,23631.000,0.200,2883.000,0.300,206.000,0.500,170.000,1.000,62.000,5.000,0
"03/06/08","02:07:26",27051.000,"cc",28288.760,6.00,6,0.100,23597.000,0.200,3037.000,0.300,212.000,0.500,147.000,1.000,58.000,5.000,0
"03/06/08","02:07:32",27258.000,"cc",28263.522,6.00,6,0.100,23674.000,0.200,3071.000,0.300,226.000,0.500,208.000,1.000,79.000,5.000,0
"03/06/08","02:07:38",27354.000,"cc",28317.303,6.00,6,0.100,23950.000,0.200,2963.000,0.300,194.000,0.500,179.000,1.000,68.000,5.000,0
"03/06/08","02:07:44",27301.000,"cc",28328.549,6.00,6,0.100,23810.000,0.200,3071.000,0.300,191.000,0.500,160.000,1.000,69.000,5.000,0
"03/06/08","02:07:50",27117.000,"cc",28276.459,6.00,6,0.100,23662.000,0.200,3041.000,0.300,196.000,0.500,152.000,1.000,66.000,5.000,0
"03/06/08","02:07:56",26936.000,"cc",28356.406,6.00,6,0.100,23574.000,0.200,2918.000,0.300,221.000,0.500,171.000,1.000,52.000,5.000,0
"03/06/08","02:08:02",26657.000,"cc",28321.703,6.00,6,0.100,23201.000,0.200,2988.000,0.300,208.000,0.500,192.000,1.000,68.000,5.000,0
"03/06/08","02:08:08",27216.000,"cc",28313.727,6.00,6,0.100,23725.000,0.200,3012.000,0.300,228.000,0.500,188.000,1.000,63.000,5.000,0
"03/06/08","02:08:14",27367.000,"cc",28302.231,6.00,6,0.100,23791.000,0.200,3069.000,0.300,200.000,0.500,225.000,1.000,82.000,5.000,0
"03/06/08","02:08:20",27468.000,"cc",28329.272,6.00,6,0.100,23949.000,0.200,3028.000,0.300,224.000,0.500,197.000,1.000,70.000,5.000,0
"03/06/08","02:08:26",27446.000,"cc",28270.004,6.00,6,0.100,23878.000,0.200,3090.000,0.300,228.000,0.500,197.000,1.000,53.000,5.000,0
"03/06/08","02:08:32",27896.000,"cc",28333.990,6.00,6,0.100,24348.000,0.200,3071.000,0.300,213.000,0.500,187.000,1.000,77.000,5.000,0
"03/06/08","02:08:38",27921.000,"cc",28368.572,6.00,6,0.100,24313.000,0.200,3105.000,0.300,246.000,0.500,194.000,1.000,63.000,5.000,0
"03/06/08","02:08:44",27796.000,"cc",28302.086,6.00,6,0.100,24117.000,0.200,3173.000,0.300,221.000,0.500,207.000,1.000,78.000,5.000,0
"03/06/08","02:08:50",27654.000,"cc",28310.482,6.00,6,0.100,24004.000,0.200,3123.000,0.300,242.000,0.500,210.000,1.000,75.000,5.000,0
"03/06/08","02:08:56",27763.000,"cc",28280.779,6.00,6,0.100,24034.000,0.200,3221.000,0.300,232.000,0.500,211.000,1.000,65.000,5.000,0
"03/06/08","02:09:02",27982.000,"cc",28309.434,6.00,6,0.100,24309.000,0.200,3162.000,0.300,246.000,0.500,188.000,1.000,77.000,5.000,0
"03/06/08","02:09:08",28110.000,"cc",28358.678,6.00,6,0.100,24490.000,0.200,3144.000,0.300,209.000,0.500,197.000,1.000,70.000,5.000,0
"03/06/08","02:09:14",28439.000,"cc",28284.801,6.00,6,0.100,24638.000,0.200,3229.000,0.300,256.000,0.500,223.000,1.000,93.000,5.000,0
"03/06/08","02:09:20",28454.000,"cc",28235.338,6.00,6,0.100,24718.000,0.200,3168.000,0.300,242.000,0.500,226.000,1.000,100.000,5.000,0
"03/06/08","02:09:26",28162.000,"cc",28341.795,6.00,6,0.100,24437.000,0.200,3228.000,0.300,234.000,0.500,200.000,1.000,63.000,5.000,0
"03/06/08","02:09:32",28199.000,"cc",28264.537,6.00,6,0.100,24502.000,0.200,3214.000,0.300,237.000,0.500,191.000,1.000,55.000,5.000,0
"03/06/08","02:09:38",28076.000,"cc",28381.768,6.00,6,0.100,24437.000,0.200,3179.000,0.300,237.000,0.500,162.000,1.000,61.000,5.000,0
"03/06/08","02:09:44",27952.000,"cc",28298.982,6.00,6,0.100,24232.000,0.200,3261.000,0.300,205.000,0.500,188.000,1.000,66.000,5.000,0
"03/06/08","02:09:50",27653.000,"cc",28327.379,6.00,6,0.100,24125.000,0.200,3071.000,0.300,230.000,0.500,174.000,1.000,53.000,5.000,0
"03/06/08","02:09:56",27832.000,"cc",28305.934,6.00,6,0.100,24188.000,0.200,3154.000,0.300,216.000,0.500,204.000,1.000,70.000,5.000,0
"03/06/08","02:10:02",28061.000,"cc",28329.361,6.00,6,0.100,24401.000,0.200,3256.000,0.300,178.000,0.500,168.000,1.000,58.000,5.000,0
"03/06/08","02:10:08",27512.000,"cc",28338.375,6.00,6,0.100,24023.000,0.200,3084.000,0.300,187.000,0.500,163.000,1.000,55.000,5.000,0
"03/06/08","02:10:14",27305.000,"cc",28295.750,6.00,6,0.100,23792.000,0.200,3093.000,0.300,203.000,0.500,160.000,1.000,57.000,5.000,0
"03/06/08","02:10:20",26887.000,"cc",28329.867,6.00,6,0.100,23327.000,0.200,3143.000,0.300,209.000,0.500,149.000,1.000,59.000,5.000,0
"03/06/08","02:10:26",27026.000,"cc",28281.400,6.00,6,0.100,23544.000,0.200,3000.000,0.300,218.000,0.500,194.000,1.000,70.000,5.000,0
"03/06/08","02:10:32",27275.000,"cc",28351.736,6.00,6,0.100,23734.000,0.200,3038.000,0.300,224.000,0.500,202.000,1.000,77.000,5.000,0
"03/06/08","02:10:38",26813.000,"cc",28316.367,6.00,6,0.100,23398.000,0.200,2909.000,0.300,234.000,0.500,196.000,1.000,76.000,5.000,0
"03/06/08","02:10:44",26736.000,"cc",28367.426,6.00,6,0.100,23217.000,0.200,3027.000,0.300,240.000,0.500,184.000,1.000,68.000,5.000,0
"03/06/08","02:10:50",26801.000,"cc",28357.211,6.00,6,0.100,23328.000,0.200,2974.000,0.300,234.000,0.500,192.000,1.000,73.000,5.000,0
"03/06/08","02:10:56",26747.000,"cc",28295.000,6.00,6,0.100,23287.000,0.200,2958.000,0.300,240.000,0.500,190.000,1.000,72.000,5.000,0
"03/06/08","02:11:02",26639.000,"cc",28322.945,6.00,6,0.100,23185.000,0.200,3017.000,0.300,206.000,0.500,161.000,1.000,70.000,5.000,0
"03/06/08","02:11:08",26150.000,"cc",28328.690,6.00,6,0.100,22624.000,0.200,3070.000,0.300,199.000,0.500,179.000,1.000,78.000,5.000,0
"03/06/08","02:11:14",25825.000,"cc",28353.084,6.00,6,0.100,22504.000,0.200,2888.000,0.300,206.000,0.500,163.000,1.000,64.000,5.000,0
"03/06/08","02:11:20",26365.000,"cc",28318.582,6.00,6,0.100,23037.000,0.200,2882.000,0.300,195.000,0.500,164.000,1.000,87.000,5.000,0
"03/06/08","02:11:26",25734.000,"cc",28325.420,6.00,6,0.100,22543.000,0.200,2723.000,0.300,216.000,0.500,190.000,1.000,62.000,5.000,0
"03/06/08","02:11:32",25616.000,"cc",28259.049,6.00,6,0.100,22354.000,0.200,2773.000,0.300,218.000,0.500,205.000,1.000,66.000,5.000,0
"03/06/08","02:11:38",25795.000,"cc",28305.740,6.00,6,0.100,22522.000,0.200,2789.000,0.300,233.000,0.500,186.000,1.000,65.000,5.000,0
"03/06/08","02:11:44",25714.000,"cc",28322.371,6.00,6,0.100,22476.000,0.200,2682.000,0.300,242.000,0.500,232.000,1.000,82.000,5.000,0
"03/06/08","02:11:50",25369.000,"cc",28321.815,6.00,6,0.100,22084.000,0.200,2772.000,0.300,217.000,0.500,211.000,1.000,85.000,5.000,0
"03/06/08","02:11:56",25378.000,"cc",28268.053,6.00,6,0.100,22191.000,0.200,2645.000,0.300,254.000,0.500,214.000,1.000,74.000,5.000,0
"03/06/08","02:12:02",25654.000,"cc",28316.041,6.00,6,0.100,22368.000,0.200,2727.000,0.300,266.000,0.500,211.000,1.000,82.000,5.000,0
"03/06/08","02:12:08",25376.000,"cc",28308.916,6.00,6,0.100,22172.000,0.200,2742.000,0.300,187.000,0.500,195.000,1.000,80.000,5.000,0
"03/06/08","02:12:14",25406.000,"cc",28365.143,6.00,6,0.100,22164.000,0.200,2789.000,0.300,202.000,0.500,174.000,1.000,77.000,5.000,0
"03/06/08","02:12:20",25329.000,"cc",28286.256,6.00,6,0.100,22101.000,0.200,2729.000,0.300,220.000,0.500,207.000,1.000,72.000,5.000,0
"03/06/08","02:12:26",25483.000,"cc",28352.582,6.00,6,0.100,22310.000,0.200,2680.000,0.300,201.000,0.500,205.000,1.000,87.000,5.000,0
"03/06/08","02:12:32",25436.000,"cc",28352.205,6.00,6,0.100,22120.000,0.200,2729.000,0.300,247.000,0.500,240.000,1.000,100.000,5.000,0
"03/06/08","02:12:38",25649.000,"cc",28275.654,6.00,6,0.100,22357.000,0.200,2786.000,0.300,196.000,0.500,207.000,1.000,103.000,5.000,0
"03/06/08","02:12:44",25243.000,"cc",28314.422,6.00,6,0.100,22105.000,0.200,2732.000,0.300,158.000,0.500,191.000,1.000,57.000,5.000,0
"03/06/08","02:12:50",25580.000,"cc",28323.523,6.00,6,0.100,22243.000,0.200,2797.000,0.300,226.000,0.500,222.000,1.000,92.000,5.000,0
"03/06/08","02:12:56",25431.000,"cc",28300.770,6.00,6,0.100,22091.000,0.200,2838.000,0.300,209.000,0.500,208.000,1.000,85.000,5.000,0
"03/06/08","02:13:02",25464.000,"cc",28256.309,6.00,6,0.100,22135.000,0.200,2737.000,0.300,249.000,0.500,239.000,1.000,104.000,5.000,0
"03/06/08","02:13:08",25986.000,"cc",28362.504,6.00,6,0.100,22692.000,0.200,2817.000,0.300,210.000,0.500,178.000,1.000,89.000,5.000,0
"03/06/08","02:13:14",26740.000,"cc",28359.457,6.00,6,0.100,23148.000,0.200,3124.000,0.300,205.000,0.500,199.000,1.000,64.000,5.000,0
"03/06/08","02:13:20",26933.000,"cc",28316.207,6.00,6,0.100,23421.000,0.200,3085.000,0.300,193.000,0.500,163.000,1.000,71.000,5.000,0
"03/06/08","02:13:26",26730.000,"cc",28316.416,6.00,6,0.100,23293.000,0.200,2972.000,0.300,217.000,0.500,190.000,1.000,58.000,5.000,0
"03/06/08","02:13:32",27061.000,"cc",28347.340,6.00,6,0.100,23498.000,0.200,3098.000,0.300,205.000,0.500,198.000,1.000,62.000,5.000,0
"03/06/08","02:13:38",27240.000,"cc",28281.609,6.00,6,0.100,23703.000,0.200,3098.000,0.300,192.000,0.500,175.000,1.000,72.000,5.000,0
"03/06/08","02:13:44",27427.000,"cc",28338.871,6.00,6,0.100,23818.000,0.200,3161.000,0.300,199.000,0.500,170.000,1.000,79.000,5.000,0
"03/06/08","02:13:50",27346.000,"cc",28298.756,6.00,6,0.100,23762.000,0.200,3112.000,0.300,223.000,0.500,194.000,1.000,55.000,5.000,0
"03/06/08","02:13:56",27526.000,"cc",28313.656,6.00,6,0.100,24003.000,0.200,3074.000,0.300,207.000,0.500,178.000,1.000,64.000,5.000,0
"03/06/08","02:14:02",27428.000,"cc",28312.397,6.00,6,0.100,23801.000,0.200,3188.000,0.300,219.000,0.500,164.000,1.000,56.000,5.000,0
"03/06/08","02:14:08",27561.000,"cc",28263.475,6.00,6,0.100,23928.000,0.200,3152.000,0.300,241.000,0.500,166.000,1.000,74.000,5.000,0
"03/06/08","02:14:14",27290.000,"cc",28296.234,6.00,6,0.100,23776.000,0.200,3009.000,0.300,228.000,0.500,194.000,1.000,83.000,5.000,0
"03/06/08","02:14:20",27221.000,"cc",28354.617,6.00,6,0.100,23698.000,0.200,3022.000,0.300,211.000,0.500,212.000,1.000,78.000,5.000,0
"03/06/08","02:14:26",27020.000,"cc",28278.877,6.00,6,0.100,23561.000,0.200,3016.000,0.300,187.000,0.500,179.000,1.000,77.000,5.000,0
"03/06/08","02:14:32",27931.000,"cc",28345.557,6.00,6,0.100,24269.000,0.200,3152.000,0.300,223.000,0.500,207.000,1.000,80.000,5.000,0
"03/06/08","02:14:38",28127.000,"cc",28358.641,6.00,6,0.100,24438.000,0.200,3179.000,0.300,229.000,0.500,206.000,1.000,75.000,5.000,0
"03/06/08","02:14:44",28268.000,"cc",28331.566,6.00,6,0.100,24460.000,0.200,3336.000,0.300,210.000,0.500,191.000,1.000,71.000,5.000,0
"03/06/08","02:14:50",28449.000,"cc",28263.613,6.00,6,0.100,24732.000,0.200,3221.000,0.300,220.000,0.500,211.000,1.000,65.000,5.000,0
"03/06/08","02:14:56",28607.000,"cc",28310.065,6.00,6,0.100,24769.000,0.200,3363.000,0.300,224.000,0.500,191.000,1.000,60.000,5.000,0
"03/06/08","02:15:02",29094.000,"cc",28374.217,6.00,6,0.100,25131.000,0.200,3484.000,0.300,198.000,0.500,196.000,1.000,85.000,5.000,0
"03/06/08","02:15:08",28737.000,"cc",28312.762,6.00,6,0.100,24779.000,0.200,3444.000,0.300,225.000,0.500,204.000,1.000,85.000,5.000,0
"03/06/08","02:15:14",29240.000,"cc",28311.658,6.00,6,0.100,25265.000,0.200,3451.000,0.300,254.000,0.500,183.000,1.000,87.000,5.000,0
"03/06/08","02:15:20",29327.000,"cc",28242.602,6.00,6,0.100,25372.000,0.200,3464.000,0.300,232.000,0.500,191.000,1.000,68.000,5.000,0
"03/06/08","02:15:26",29354.000,"cc",28299.705,6.00,6,0.100,25254.000,0.200,3569.000,0.300,252.000,0.500,198.000,1.000,81.000,5.000,0
"03/06/08","02:15:32",30035.000,"cc",28309.160,6.00,6,0.100,26008.000,0.200,3487.000,0.300,247.000,0.500,194.000,1.000,99.000,5.000,0
"03/06/08","02:15:38",30255.000,"cc",28321.371,6.00,6,0.100,26055.000,0.200,3656.000,0.300,269.000,0.500,199.000,1.000,76.000,5.000,0
"03/06/08","02:15:44",30336.000,"cc",28239.098,6.00,6,0.100,26213.000,0.200,3584.000,0.300,245.000,0.500,207.000,1.000,87.000,5.000,0
"03/06/08","02:15:50",30468.000,"cc",28416.938,6.00,6,0.100,26326.000,0.200,3612.000,0.300,255.000,0.500,205.000,1.000,70.000,5.000,0
"03/06/08","02:15:56",30242.000,"cc",28332.713,6.00,6,0.100,26137.000,0.200,3597.000,0.300,253.000,0.500,183.000,1.000,72.000,5.000,0
"03/06/08","02:16:02",30402.000,"cc",28281.113,6.00,6,0.100,26231.000,0.200,3648.000,0.300,243.000,0.500,202.000,1.000,78.000,5.000,0
"03/06/08","02:16:08",30742.000,"cc",28333.758,6.00,6,0.100,26676.000,0.200,3587.000,0.300,233.000,0.500,183.000,1.000,63.000,5.000,0
"03/06/08","02:16:14",30617.000,"cc",28365.443,6.00,6,0.100,26468.000,0.200,3614.000,0.300,272.000,0.500,185.000,1.000,78.000,5.000,0
"03/06/08","02:16:20",30394.000,"cc",28366.119,6.00,6,0.100,26231.000,0.200,3631.000,0.300,263.000,0.500,200.000,1.000,69.000,5.000,0
"03/06/08","02:16:26",30518.000,"cc",28361.647,6.00,6,0.100,26349.000,0.200,3632.000,0.300,230.000,0.500,232.000,1.000,75.000,5.000,0
"03/06/08","02:16:32",30488.000,"cc",28279.830,6.00,6,0.100,26387.000,0.200,3542.000,0.300,253.000,0.500,227.000,1.000,79.000,5.000,0
"03/06/08","02:16:38",30189.000,"cc",28265.201,6.00,6,0.100,26018.000,0.200,3632.000,0.300,273.000,0.500,192.000,1.000,74.000,5.000,0
"03/06/08","02:16:44",29834.000,"cc",28259.166,6.00,6,0.100,25844.000,0.200,3463.000,0.300,249.000,0.500,207.000,1.000,71.000,5.000,0